Flag for Germany Weather past 2 weeks in Pulheim, North Rhine-Westphalia, Germany

Now
52 °F

Cool.


Feels Like: 52 °F
Forecast: 45 / 54 °F
Wind: 1 mph from South

Location: Noervenich

Current Time: Apr 26, 2015 at 5:38:08 AM

Latest Report: Apr 26, 2015 at 4:20 AM


Visibility: 6 mi

Pressure: 29.74 "Hg

Humidity: 94%

Dew point: 50 °F

Location of PulheimLocation

Historic Weather in Pulheim — Graph

°F

Pulheim temperature yesterday

Maximum temperature yesterday: 61 °F (at 5:20 PM)
Minimum temperature yesterday: 52 °F (at 11:20 PM)
Average temperature yesterday: 56 °F

Past Weeks' High & Low Weather Summary

 TemperatureHumidityPressure
High75 °F (Apr 15, 2:20 PM)100% (Apr 23, 6:01 AM)30.48 "Hg (Apr 23, 6:01 AM)
Low34 °F (Apr 19, 6:20 AM)27% (Apr 24, 3:20 PM)29.74 "Hg (Apr 25, 5:20 PM)
Average53 °F62%30.17 "Hg
* Reported Apr 11 3:20 AM — Apr 26 3:20 AM, Pulheim, Weather by CustomWeather, © 2015

Note: Actual official high and low records may vary slightly from our data, if they occured in-between our weather recording intervals... More about our weather records

Advertising

Pulheim weather history for previous 24 hours

 ConditionsComfort  
Time TempWeatherWind HumidityBarometerVisibility
3:20 AM
Sun, Apr 26
54 °FCool.3 mph88%29.74 "Hg4 mi
2:20 AM54 °FCool.3 mph88%29.77 "Hg2 mi
1:20 AM54 °FCool.3 mph82%29.77 "Hg5 mi
12:20 AM54 °FCool.3 mph82%29.77 "HgN/A
11:20 PM
Sat, Apr 25
52 °FCool.2 mph88%29.77 "Hg4 mi
10:20 PM54 °FCool.2 mph88%29.77 "Hg5 mi
9:20 PM57 °FCool.1 mph77%29.77 "Hg4 mi
8:20 PM59 °FCool.3 mph72%29.77 "HgN/A
7:20 PM59 °FCool.2 mph77%29.74 "HgN/A
6:20 PM61 °FCool.10 mph68%29.77 "HgN/A
5:20 PM61 °FCool.9 mph68%29.74 "HgN/A
4:20 PM59 °FCool.9 mph72%29.77 "HgN/A
3:20 PM57 °FCool.8 mph82%29.77 "HgN/A
2:20 PM55 °FCool.5 mph94%29.77 "Hg4 mi
1:20 PM57 °FCool.1 mph82%29.77 "Hg4 mi
12:20 PM57 °FCool.1 mph82%29.77 "Hg2 mi
11:20 AM57 °FCool.1 mph82%29.80 "Hg4 mi
10:20 AM54 °FCool.1 mph94%29.80 "Hg3 mi
9:20 AM54 °FCool.2 mph88%29.80 "Hg2 mi
8:20 AM54 °FCool.1 mph94%29.80 "Hg1 mi
7:20 AM54 °FCool.No wind88%29.80 "Hg2 mi
6:20 AM54 °FCool.2 mph82%29.80 "Hg3 mi
5:20 AM55 °FCool.1 mph77%29.77 "Hg4 mi
Weather by CustomWeather, © 2015

See weather overviewHow to use our weather pages